Content
SEND FEEDBACK

Daily
Averages
Monthly
Summary
United States of America

BOX ELDER, SOUTH DAKOTA


Home > North America > United States > South Dakota
Elevation: 3170 feet     Latitude: 44 09N     Longitude: 103 06W

WEATHER
 
SELECT A DAY
Number of Records: 204,367;   Date Range: 1/1/95 - 9/21/14
 
SHARE

PRINT THIS DATA

[ ← Previous Day ]
WEATHER ALMANAC - JANUARY 9, 2013
[ Next Day → ]
[ °C ]   °F
Weather ElementAverageHighLow
Temperature38.7 °F56.7 °F (2:55 pm)20.5 °F (4:55 am)
Dewpoint22.7 °F28.8 °F (11:55 am)15.8 °F (5:55 am)
Humidity56.8 %85 % (1:55 am)30 % (12:55 pm)
Barometer30.06 in30.18 in (7:55 am)29.82 in (11:55 pm)
Wind Speed8.2 mph17.3 mph (11:55 pm)
Weather ElementAverage
Visibility10 mi
Wind DirectionSSE (171.3 °)

Weather ElementTotal
Precipitation---
Heating Degree Days26.4 (Base 65)
Averaged from 23 records on January 9, 2013
WEATHER CONDITIONS BREAKOUT
WIND DIRECTION BREAKOUT
WEATHER BY HOUR - JANUARY 9, 2013
[ °C ]   °F
Local TimeTemperatureDewpointHumidityBarometerVisibilityWind DirectionWind SpeedGust SpeedPrecipitationEventsConditions
1:55 AM24.6 °F20.7 °F85 %30.17 in10.0 miSW (220°)3.5 mphClear
2:55 AM25.5 °F19.4 °F78 %30.17 in10.0 miWest (280°)5.8 mphClear
3:55 AM23.2 °F18.5 °F82 %30.15 in10.0 miSW (220°)3.5 mphClear
4:55 AM20.5 °F16.5 °F85 %30.16 in10.0 miCalmClear
5:55 AM20.8 °F15.8 °F81 %30.16 in10.0 miCalmClear
6:55 AM20.7 °F16.3 °F83 %30.16 in10.0 miWest (280°)4.6 mphClear
7:55 AM26.6 °F18.9 °F73 %30.18 in9.0 miSW (230°)4.6 mphClear
8:55 AM30.7 °F25.2 °F80 %30.16 in10.0 miWSW (240°)4.6 mphClear
9:55 AM41.2 °F27.3 °F58 %30.15 in10.0 miCalmClear
10:55 AM50.2 °F26.1 °F39 %30.12 in10.0 miSouth (180°)8.1 mphClear
11:55 AM50.5 °F28.8 °F43 %30.09 in10.0 miSouth (180°)12.7 mphClear
12:55 PM54.7 °F23.7 °F30 %30.05 in10.0 miSouth (190°)11.5 mphClear
1:55 PM56.1 °F27.1 °F33 %30.04 in10.0 miSouth (170°)11.5 mphClear
2:55 PM56.7 °F26.1 °F31 %30.03 in10.0 miSE (140°)12.7 mphClear
3:55 PM53.8 °F23.2 °F30 %30.02 in10.0 miSouth (190°)12.7 mphClear
4:55 PM48.2 °F21.7 °F35 %30.05 in10.0 miSSW (210°)11.5 mphClear
5:55 PM49.1 °F21.6 °F34 %30.02 in10.0 miSouth (190°)6.9 mphClear
6:55 PM40.1 °F25.9 °F57 %30.01 in10.0 miSouth (180°)6.9 mphClear
7:55 PM40.5 °F26.2 °F57 %29.97 in10.0 miSSE (160°)9.2 mphClear
8:55 PM41.0 °F25.3 °F54 %29.93 in10.0 miSSE (160°)11.5 mphClear
9:55 PM37.6 °F24.6 °F60 %29.90 in10.0 miSouth (170°)13.8 mphClear
10:55 PM39.7 °F22.6 °F50 %29.86 in10.0 miSouth (170°)15.0 mphClear
11:55 PM38.8 °F21.0 °F49 %29.82 in10.0 miSouth (180°)17.3 mphClear
Hourly data recorded from KRCA, located miles away from Box Elder, South Dakota







STORIES FROM OUR PARTNERS